Location: Boston
(42.3580°N, 71.0600°W)
Time: 22:50:13
(UTC-04:00)

Vanguard 2 - All Passes

Search period start: 24 June 2018 00:00
Search period end: 04 July 2018 00:00
Orbit: 554 x 2939 km, 32.9° (Epoch: 24 June)

Date Brightness Start Highest point End Pass type
(mag) Time Alt. Az. Time Alt. Az. Time Alt. Az.
24 Jun - 00:34:58 10° SSE 00:37:18 11° SSE 00:39:25 10° SE visible
24 Jun - 02:39:40 10° SW 02:46:19 23° SSE 02:51:02 10° ESE visible
24 Jun - 04:49:02 10° WSW 04:54:34 30° S 04:58:35 10° ESE daylight
24 Jun - 06:58:55 10° WSW 07:02:08 19° SSW 07:05:00 10° SSE daylight
25 Jun - 00:49:21 10° S 00:55:21 16° SSE 01:00:04 10° ESE visible
25 Jun - 02:57:00 10° SW 03:04:19 29° S 03:09:17 10° ESE visible
25 Jun - 05:06:59 10° WSW 05:12:29 30° S 05:16:28 10° SE daylight
25 Jun - 07:17:25 10° WSW 07:19:54 14° SSW 07:22:10 10° SSE daylight
26 Jun - 01:05:32 10° SSW 01:13:24 22° SSE 01:19:06 10° ESE visible
26 Jun - 03:14:37 10° SW 03:22:18 33° S 03:27:22 10° ESE visible
26 Jun - 05:25:02 10° WSW 05:30:21 29° SSW 05:34:14 10° SE daylight
26 Jun - 07:37:02 10° SW 07:37:36 10° SSW 07:38:10 10° SSW daylight
26 Jun - 23:17:05 10° S 23:21:53 13° SSE 23:26:02 10° SE night (unlit)
27 Jun - 01:22:23 10° SW 01:31:27 27° SSE 01:37:38 10° ESE visible
27 Jun - 03:32:26 10° WSW 03:40:16 36° S 03:45:22 10° ESE visible
27 Jun - 05:43:13 10° WSW 05:48:09 25° SSW 05:51:53 10° SE daylight
27 Jun - 23:31:49 10° S 23:39:56 18° SSE 23:46:15 10° ESE visible
28 Jun - 01:39:39 10° SW 01:49:29 33° SSE 01:55:54 10° ESE visible
28 Jun - 03:50:24 10° WSW 03:58:13 38° S 04:03:16 10° ESE visible
28 Jun - 06:01:32 10° WSW 06:05:55 21° SSW 06:09:19 10° SSE daylight
28 Jun - 23:47:53 10° SSW 23:57:58 24° SSE 00:05:18 10° ESE visible
29 Jun - 01:57:13 10° SW 02:07:31 38° S 02:14:01 10° ESE visible
29 Jun - 04:08:28 10° WSW 04:16:07 37° S 04:21:06 10° ESE visible
29 Jun - 06:20:07 10° WSW 06:23:34 16° SSW 06:26:27 10° S daylight
29 Jun - 21:59:50 10° S 22:05:59 13° SSE 22:11:20 10° ESE visible
30 Jun - 00:04:35 10° SSW 00:16:01 30° SSE 00:23:53 10° ESE visible
30 Jun - 02:15:00 10° WSW 02:25:31 42° S 02:32:02 10° ESE visible
30 Jun - 04:26:38 10° WSW 04:33:58 34° SSW 04:38:50 10° SE visible
30 Jun - 06:39:24 10° SW 06:41:10 11° SW 06:42:46 10° SSW daylight
30 Jun - 22:14:20 10° S 22:23:57 19° SSE 22:31:43 10° ESE visible
01 Jul - 00:21:45 10° SW 00:34:03 36° SSE 00:42:12 10° ESE visible
01 Jul - 02:32:57 10° WSW 02:43:29 44° S 02:49:58 10° ESE visible
01 Jul - 04:44:52 10° WSW 04:51:45 30° SSW 04:56:26 10° SE daylight
01 Jul - 22:30:10 10° SSW 22:41:57 25° SSE 22:50:54 10° ESE visible
02 Jul - 00:39:13 10° SW 00:52:05 42° SSE 01:00:21 10° ESE visible
02 Jul - 02:51:01 10° WSW 03:01:26 45° S 03:07:51 10° ESE visible
02 Jul - 05:03:15 10° WSW 05:09:26 25° SSW 05:13:50 10° SSE daylight
02 Jul - 20:43:24 10° SSE 20:49:37 13° SE 20:55:19 10° ESE visible
02 Jul - 22:46:42 10° SSW 22:59:57 31° SSE 23:09:35 10° E visible
03 Jul - 00:56:56 10° WSW 01:10:07 46° S 01:18:24 10° ESE visible
03 Jul - 03:09:09 10° WSW 03:19:21 43° SSW 03:25:39 10° ESE visible
03 Jul - 05:21:51 10° WSW 05:27:03 19° SW 05:30:58 10° SSE daylight
03 Jul - 20:57:19 10° S 21:07:29 19° SE 21:16:16 10° ESE visible
03 Jul - 23:03:42 10° SW 23:17:57 38° SSE 23:27:59 10° E visible
